軌道要素
Epoch 2003 June 10.0 TT = JDT 2452800.5
T 2003 June 27.85333 TT Rudenko
q 3.9340554 (2000.0) P Q
n 0.05340169 Peri. 326.75881 -0.06659731 -0.90078643
a 6.9839224 Node 123.33130 +0.99023709 -0.11245170
e 0.4366983 Incl. 30.90463 +0.12245531 +0.41945015
P 18.5
From 1012 observations 2002 Oct. 5-2020 Aug. 19, mean residual 0".7.
|